Location: Brusselsch Zeekanaal
(50.8667°N, 4.3667°E)
Time: 11:57:53
(UTC+00:00)

Cosmos 1459 Rocket - Pass Details

Date: 08 November 2025
Orbit: 936 x 998 km, 83.0° (Epoch: 10 December)

Event Time Altitude Azimuth Distance (km) Brightness Sun altitude
Rises 04:43:52 0° 347° (NNW) 3,731 6.9 -19.5°
Reaches altitude 10° 04:46:27 10° 343° (NNW) 2,779 6.2 -19.1°
Maximum altitude 04:52:39 55° 268° (W) 1,184 4.1 -18.1°
Drops below altitude 10° 04:58:47 10° 192° (SSW) 2,747 6.3 -17.1°
Sets 05:01:20 0° 189° (S) 3,686 7.0 -16.7°
